User: anonymous   Login
Location: Natural Bridges National Monument
(37.6093°N, 109.9767°W)
Time: 19:05:53
(UTC-06:00)
Language:

USA 32 - Orbit

View from above orbital plane
View from above orbital plane
View from above satellite
View from above satellite

Ground track
Ground track

The orbit data is extracted from the following two-line orbital elements,

1 19460U 88078A   15102.85021400 0.00000160  00000-0  58205-4 0    04
2 19460  84.9866 324.2339 0004998 150.4052 209.5947 14.33295246    01
Epoch (UTC): 12 April 2015 20:24:18
Eccentricity: 0.0004998
inclination: 84.9866°
perigee height: 777 km
apogee height: 784 km
right ascension of ascending node: 324.2339°
argument of perigee: 150.4052°
revolutions per day: 14.33295246
mean anomaly at epoch: 209.5947°
orbit number at epoch: 0

The dashed part of the orbit path shows where the satellite is in the earth's shadow,  

DLR